DW8344 Weather Reports


time (UTC)temp
C
wind
direction
speed
KPH
gust
KPH
rain 1hr
cm
rain 24hr
cm
rain mn
cm
humidity
%
barometer
mb
20260504034503 13 185 1.6 6.4 0.00 0.00 0.00 41 1001.1
20260504034216 13 184 1.6 6.4 0.00 0.00 0.00 41 1001.1
20260504033504 13 171 1.6 3.2 0.00 0.00 0.00 41 1001.3
20260504033004 13 167 1.6 3.2 0.00 0.00 0.00 41 1001.4
20260504032504 13 163 1.6 3.2 0.00 0.00 0.00 41 1001.5
20260504032003 13 166 1.6 3.2 0.00 0.00 0.00 42 1001.6
20260504031503 13 166 1.6 3.2 0.00 0.00 0.00 41 1001.7
20260504031003 13 156 1.6 3.2 0.00 0.00 0.00 42 1001.8
20260504030716 13 161 1.6 4.8 0.00 0.00 0.00 42 1001.8
20260504030004 12 166 1.6 4.8 0.00 0.00 0.00 43 1001.9
20260504025504 12 160 1.6 3.2 0.00 0.00 0.00 46 1001.9
20260504025003 12 145 0.0 1.6 0.00 0.00 0.00 49 1001.9
20260504024504 11 145 0.0 1.6 0.00 0.00 0.00 53 1001.9
20260504024003 12 145 0.0 1.6 0.00 0.00 0.00 48 1002.0
20260504023714 12 145 0.0 1.6 0.00 0.00 0.00 49 1002.0
20260504023004 12 146 0.0 1.6 0.00 0.00 0.00 45 1002.0
20260504022504 13 175 1.6 3.2 0.00 0.00 0.00 43 1002.1
20260504022003 13 195 1.6 3.2 0.00 0.00 0.00 42 1002.0
20260504021504 13 259 0.0 1.6 0.00 0.00 0.00 41 1002.1
20260504021003 14 185 0.0 1.6 0.00 0.00 0.00 40 1002.1
20260504020504 15 165 0.0 1.6 0.00 0.00 0.00 39 1002.0
20260504020004 15 162 1.6 1.6 0.00 0.00 0.00 38 1002.0
20260504015503 15 173 1.6 4.8 0.00 0.00 0.00 38 1001.9
20260504015003 15 180 1.6 4.8 0.00 0.00 0.00 36 1002.0
20260504014504 15 178 1.6 3.2 0.00 0.00 0.00 36 1001.9
20260504014003 16 178 1.6 3.2 0.00 0.00 0.00 36 1002.0
20260504013503 16 174 1.6 3.2 0.00 0.00 0.00 35 1002.0
20260504013003 16 171 1.6 3.2 0.00 0.00 0.00 35 1002.0
20260504012503 16 172 1.6 4.8 0.00 0.00 0.00 35 1002.0
20260504012003 16 173 1.6 4.8 0.00 0.00 0.00 34 1002.0
20260504011504 17 177 1.6 3.2 0.00 0.00 0.00 33 1002.1
20260504011004 17 188 1.6 3.2 0.00 0.00 0.00 33 1002.1
20260504010504 17 207 1.6 4.8 0.00 0.00 0.00 32 1002.1
20260504010215 18 214 1.6 4.8 0.00 0.00 0.00 31 1002.2
20260504005713 18 203 1.6 4.8 0.00 0.00 0.00 31 1002.1
20260504005004 18 208 1.6 6.4 0.00 0.00 0.00 30 1002.2
20260504004503 18 224 1.6 6.4 0.00 0.00 0.00 30 1002.2
20260504004004 19 232 1.6 6.4 0.00 0.00 0.00 30 1002.2
20260504003504 19 231 3.2 9.7 0.00 0.00 0.00 28 1002.2
20260504003003 19 232 3.2 9.7 0.00 0.00 0.00 29 1002.3
20260504002503 19 247 1.6 6.4 0.00 0.00 0.00 28 1002.4
20260504002004 19 241 1.6 4.8 0.00 0.00 0.00 29 1002.5
20260504001503 19 241 3.2 6.4 0.00 0.00 0.00 29 1002.5
20260504001215 19 248 3.2 6.4 0.00 0.00 0.00 29 1002.4
20260504000504 18 274 1.6 8.0 0.00 0.00 0.00 28 1002.5
20260504000004 18 260 1.6 9.7 0.00 0.00 0.00 28 1002.5
20260503235714 19 244 1.6 9.7 0.00 0.00 0.00 28 1002.5
20260503235004 19 276 1.6 8.0 0.00 0.00 0.00 27 1002.4
20260503234715 20 281 3.2 9.7 0.00 0.00 0.00 27 1002.5
20260503234003 20 251 3.2 12.9 0.00 0.00 0.00 28 1002.5
20260503233716 20 259 3.2 12.9 0.00 0.00 0.00 27 1002.5
20260503233004 20 280 4.8 11.3 0.00 0.00 0.00 27 1002.5
20260503232504 20 255 3.2 11.3 0.00 0.00 0.00 27 1002.6
20260503232003 20 277 3.2 11.3 0.00 0.00 0.00 27 1002.7
20260503231503 20 297 4.8 14.5 0.00 0.00 0.00 27 1002.7
20260503231003 20 281 4.8 14.5 0.00 0.00 0.00 27 1002.7
20260503230503 20 269 4.8 12.9 0.00 0.00 0.00 27 1002.8
20260503230004 20 267 4.8 12.9 0.00 0.00 0.00 26 1002.7
20260503225504 20 277 4.8 17.7 0.00 0.00 0.00 26 1002.8
20260503225004 20 290 4.8 17.7 0.00 0.00 0.00 26 1002.9
20260503224503 20 303 6.4 14.5 0.00 0.00 0.00 25 1002.9
20260503224004 20 308 4.8 12.9 0.00 0.00 0.00 25 1002.9
20260503223716 21 305 4.8 12.9 0.00 0.00 0.00 25 1002.9
20260503223214 21 322 6.4 12.9 0.00 0.00 0.00 25 1003.0
20260503222503 21 326 6.4 19.3 0.00 0.00 0.00 25 1003.0
20260503222215 21 323 4.8 19.3 0.00 0.00 0.00 25 1002.9
20260503221503 21 319 6.4 14.5 0.00 0.00 0.00 24 1003.0
20260503221003 21 299 6.4 20.9 0.00 0.00 0.00 25 1002.9
20260503220504 21 275 6.4 20.9 0.00 0.00 0.00 24 1002.9
20260503220003 21 271 4.8 14.5 0.00 0.00 0.00 24 1003.0
20260503215503 21 281 6.4 24.1 0.00 0.00 0.00 26 1003.1
20260503215213 21 295 6.4 24.1 0.00 0.00 0.00 23 1003.1
20260503214716 21 328 4.8 12.9 0.00 0.00 0.00 24 1003.1
20260503214004 21 318 3.2 9.7 0.00 0.00 0.00 23 1003.2
20260503213504 21 322 3.2 9.7 0.00 0.00 0.00 23 1003.3
20260503213003 20 309 4.8 12.9 0.00 0.00 0.00 22 1003.3
20260503212503 21 317 6.4 19.3 0.00 0.00 0.00 25 1003.4
20260503212003 21 330 6.4 19.3 0.00 0.00 0.00 23 1003.4
20260503211503 20 329 6.4 17.7 0.00 0.00 0.00 24 1003.4
20260503211003 20 336 8.0 20.9 0.00 0.00 0.00 24 1003.5
20260503210504 20 334 8.0 20.9 0.00 0.00 0.00 24 1003.6
20260503210005 20 326 6.4 14.5 0.00 0.00 0.00 24 1003.6
20260503205716 20 330 8.0 14.5 0.00 0.00 0.00 29 1003.7
20260503205003 20 337 9.7 20.9 0.00 0.00 0.00 26 1003.7
20260503204503 20 336 9.7 20.9 0.00 0.00 0.00 23 1003.9
20260503204003 20 328 9.7 27.4 0.00 0.00 0.00 26 1003.8
20260503203503 20 319 8.0 27.4 0.00 0.00 0.00 23 1003.8
20260503203004 20 302 6.4 16.1 0.00 0.00 0.00 22 1003.8
20260503202504 20 297 6.4 16.1 0.00 0.00 0.00 22 1003.9
20260503202217 20 302 6.4 16.1 0.00 0.00 0.00 23 1003.9
20260503201715 20 312 6.4 20.9 0.00 0.00 0.00 22 1004.0
20260503201003 20 327 8.0 20.9 0.00 0.00 0.00 22 1004.0
20260503200503 20 319 9.7 17.7 0.00 0.00 0.00 21 1004.0
20260503200003 20 304 8.0 20.9 0.00 0.00 0.00 21 1004.0
20260503195504 20 301 8.0 20.9 0.00 0.00 0.00 20 1004.1
20260503195003 20 299 8.0 17.7 0.00 0.00 0.00 25 1004.1
20260503194718 20 307 8.0 16.1 0.00 0.00 0.00 22 1004.1
20260503194003 20 326 9.7 20.9 0.00 0.00 0.00 25 1004.0
20260503193503 20 320 8.0 20.9 0.00 0.00 0.00 24 1004.2
20260503193216 20 325 9.7 24.1 0.00 0.00 0.00 22 1004.2
20260503192714 20 323 9.7 24.1 0.00 0.00 0.00 24 1004.2
20260503192004 20 310 8.0 20.9 0.00 0.00 0.00 24 1004.2
20260503191504 20 319 9.7 20.9 0.00 0.00 0.00 25 1004.4
20260503191004 20 327 9.7 20.9 0.00 0.00 0.00 27 1004.3
20260503190504 20 323 9.7 20.9 0.00 0.00 0.00 27 1004.4
20260503190004 20 329 11.3 24.1 0.00 0.00 0.00 27 1004.4
20260503185503 20 333 11.3 24.1 0.00 0.00 0.00 29 1004.4
20260503185215 20 332 9.7 24.1 0.00 0.00 0.00 26 1004.4
20260503184504 20 325 9.7 24.1 0.00 0.00 0.00 23 1004.4
20260503184004 20 325 9.7 24.1 0.00 0.00 0.00 26 1004.4
20260503183504 20 329 9.7 22.5 0.00 0.00 0.00 28 1004.4
20260503183004 20 325 8.0 22.5 0.00 0.00 0.00 29 1004.4
20260503182503 20 320 9.7 20.9 0.00 0.00 0.00 31 1004.5
20260503182005 19 322 9.7 20.9 0.00 0.00 0.00 30 1004.6
20260503181504 20 329 9.7 25.7 0.00 0.00 0.00 30 1004.7
20260503181214 19 331 11.3 25.7 0.00 0.00 0.00 27 1004.8
20260503180503 19 331 11.3 24.1 0.00 0.00 0.00 32 1004.8
20260503180215 19 330 11.3 24.1 0.00 0.00 0.00 30 1004.8
20260503175504 19 324 9.7 22.5 0.00 0.00 0.00 34 1004.7
20260503175003 19 329 9.7 22.5 0.00 0.00 0.00 32 1004.8
20260503174503 19 324 9.7 22.5 0.00 0.00 0.00 38 1004.7
20260503174217 19 316 9.7 22.5 0.00 0.00 0.00 38 1004.7
20260503173715 19 312 9.7 22.5 0.00 0.00 0.00 38 1004.6
20260503173218 19 325 9.7 22.5 0.00 0.00 0.00 38 1004.7
20260503172504 19 323 9.7 20.9 0.00 0.00 0.00 40 1004.7
20260503172214 19 326 9.7 22.5 0.00 0.00 0.00 41 1004.8
20260503171717 19 323 8.0 22.5 0.00 0.00 0.00 43 1004.9
20260503171003 19 306 8.0 20.9 0.00 0.00 0.00 42 1004.8
20260503170503 20 320 9.7 20.9 0.00 0.00 0.00 40 1004.8
20260503151004 17 333 8.0 16.1 0.00 0.00 0.00 47 1004.6
20260503150504 17 334 8.0 20.9 0.00 0.00 0.00 47 1004.6
20260503131004 14 246 1.6 4.8 0.00 0.00 0.00 55 1004.2
20260503130503 14 247 1.6 4.8 0.00 0.00 0.00 55 1004.2
20260503110504 5 145 0.0 1.6 0.00 0.00 0.00 84 1003.2
20260503081503 11 149 1.6 3.2 0.00 0.00 0.00 60 1003.8
20260503081004 11 148 1.6 4.8 0.00 0.00 0.00 60 1003.8
20260503080713 11 146 1.6 4.8 0.00 0.00 0.00 60 1003.9
20260503072504 12 149 3.2 6.4 0.00 0.00 0.00 56 1004.3
20260503072215 12 152 3.2 6.4 0.00 0.00 0.00 56 1004.4
20260503071504 12 154 4.8 8.0 0.00 0.00 0.00 55 1004.5
20260503071004 12 154 4.8 8.0 0.00 0.00 0.00 55 1004.6
20260503070503 12 152 4.8 9.7 0.00 0.00 0.00 54 1004.7
20260503070217 12 152 4.8 9.7 0.00 0.00 0.00 54 1004.8
20260503055004 13 154 8.0 14.5 0.00 0.00 0.00 50 1005.9
20260503054503 13 151 6.4 9.7 0.00 0.00 0.00 51 1006.0
20260503054004 13 150 6.4 9.7 0.00 0.00 0.00 51 1006.0
20260503053503 13 148 6.4 9.7 0.00 0.00 0.00 50 1005.9
20260503053004 13 149 6.4 9.7 0.00 0.00 0.00 50 1006.0
20260503052713 13 150 6.4 9.7 0.00 0.00 0.00 49 1006.1
20260503052216 13 148 6.4 12.9 0.00 0.00 0.00 49 1006.1
20260503051714 14 149 6.4 12.9 0.00 0.00 0.00 49 1006.1
20260503051003 14 148 4.8 9.7 0.00 0.00 0.00 49 1006.2
20260503050504 13 147 3.2 8.0 0.00 0.00 0.00 49 1006.3
20260503050006 13 148 3.2 8.0 0.00 0.00 0.00 49 1006.3
20260503045503 14 152 3.2 6.4 0.00 0.00 0.00 49 1006.5
20260503045004 14 156 4.8 6.4 0.00 0.00 0.00 49 1006.5
20260503044504 13 160 4.8 6.4 0.00 0.00 0.00 49 1006.5
20260503044003 13 161 4.8 6.4 0.00 0.00 0.00 49 1006.6
20260503043503 13 153 4.8 6.4 0.00 0.00 0.00 49 1006.6
20260503043004 13 150 4.8 8.0 0.00 0.00 0.00 50 1006.5
20260503042504 14 157 4.8 8.0 0.00 0.00 0.00 49 1006.7
20260503042003 14 165 4.8 9.7 0.00 0.00 0.00 48 1006.8
20260503041715 14 165 4.8 9.7 0.00 0.00 0.00 48 1006.9
20260503041004 14 158 4.8 9.7 0.00 0.00 0.00 48 1007.0
20260503040716 14 157 4.8 9.7 0.00 0.00 0.00 48 1007.0
20260503040219 14 156 6.4 8.0 0.00 0.00 0.00 48 1007.1
20260503035503 14 180 3.2 9.7 0.00 0.00 0.00 49 1007.1
20260503035004 13 180 1.6 9.7 0.00 0.00 0.00 52 1007.3